Time,TemperatureF,DewpointF,PressureIn,WindDirection,WindDirectionDegrees,WindSpeedMPH,WindSpeedGustMPH,Humidity,HourlyPrecipIn,Conditions,Clouds,dailyrainin,SoftwareType,DateUTC
2013-09-03 00:04:00,60.2,55.7,24.89,SSE,151,6.0,-999.0,85,-99.99,,,-99.99,dwt +perl,2013-09-03 07:04:00,
2013-09-03 00:09:00,60.2,55.7,24.89,SSE,153,6.0,-999.0,85,-99.99,,,-99.99,dwt +perl,2013-09-03 07:09:00,
2013-09-03 00:14:00,60.2,55.7,24.89,SSE,153,5.0,-999.0,85,-99.99,,,-99.99,dwt +perl,2013-09-03 07:14:00,
2013-09-03 00:19:00,60.1,55.6,24.89,SSE,153,5.0,-999.0,85,-99.99,,,-99.99,dwt +perl,2013-09-03 07:19:00,
2013-09-03 00:24:00,60.1,55.9,24.89,SSE,153,0.0,-999.0,86,-99.99,,,-99.99,dwt +perl,2013-09-03 07:24:00,
2013-09-03 00:29:00,60.0,55.5,24.89,SSE,153,1.0,-999.0,85,-99.99,,,-99.99,dwt +perl,2013-09-03 07:29:00,
2013-09-03 00:34:00,59.8,55.3,24.89,SSE,153,1.0,-999.0,85,-99.99,,,-99.99,dwt +perl,2013-09-03 07:34:00,
2013-09-03 00:39:00,59.7,55.5,24.89,SSE,153,6.0,-999.0,86,-99.99,,,-99.99,dwt +perl,2013-09-03 07:39:00,
2013-09-03 00:44:00,59.5,55.3,24.89,South,172,6.0,-999.0,86,-99.99,,,-99.99,dwt +perl,2013-09-03 07:44:00,
2013-09-03 00:49:00,59.3,55.1,24.89,South,172,4.0,-999.0,86,-99.99,,,-99.99,dwt +perl,2013-09-03 07:49:00,
2013-09-03 00:54:00,59.1,54.9,24.89,South,172,4.0,-999.0,86,-99.99,,,-99.99,dwt +perl,2013-09-03 07:54:00,
2013-09-03 00:59:00,59.2,55.0,24.89,South,172,4.0,-999.0,86,-99.99,,,-99.99,dwt +perl,2013-09-03 07:59:00,
2013-09-03 01:04:00,59.3,55.1,24.89,South,172,5.0,-999.0,86,-99.99,,,-99.99,dwt +perl,2013-09-03 08:04:00,
2013-09-03 01:09:00,59.4,55.2,24.89,South,172,4.0,-999.0,86,-99.99,,,-99.99,dwt +perl,2013-09-03 08:09:00,
2013-09-03 01:14:00,59.5,55.0,24.89,South,172,5.0,-999.0,85,-99.99,,,-99.99,dwt +perl,2013-09-03 08:14:00,
2013-09-03 01:19:00,59.5,54.7,24.89,South,172,4.0,-999.0,84,-99.99,,,-99.99,dwt +perl,2013-09-03 08:19:00,
2013-09-03 01:24:00,59.6,54.1,24.89,South,172,3.0,-999.0,82,-99.99,,,-99.99,dwt +perl,2013-09-03 08:24:00,
2013-09-03 01:29:00,59.7,53.8,24.89,South,172,2.0,-999.0,81,-99.99,,,-99.99,dwt +perl,2013-09-03 08:29:00,
2013-09-03 01:34:00,59.8,54.0,24.89,South,172,2.0,-999.0,81,-99.99,,,-99.99,dwt +perl,2013-09-03 08:34:00,
2013-09-03 01:39:00,59.8,52.9,24.89,South,172,5.0,-999.0,78,-99.99,,,-99.99,dwt +perl,2013-09-03 08:39:00,
2013-09-03 01:44:00,59.8,53.3,24.89,South,172,4.0,-999.0,79,-99.99,,,-99.99,dwt +perl,2013-09-03 08:44:00,
2013-09-03 01:49:00,59.2,53.0,24.89,South,172,5.0,-999.0,80,-99.99,,,-99.99,dwt +perl,2013-09-03 08:49:00,
2013-09-03 01:54:00,59.0,52.5,24.89,South,172,4.0,-999.0,79,-99.99,,,-99.99,dwt +perl,2013-09-03 08:54:00,
2013-09-03 01:59:00,59.0,52.1,24.89,South,172,2.0,-999.0,78,-99.99,,,-99.99,dwt +perl,2013-09-03 08:59:00,
2013-09-03 02:04:00,58.8,52.0,24.89,South,172,3.0,-999.0,78,-99.99,,,-99.99,dwt +perl,2013-09-03 09:04:00,
2013-09-03 02:09:00,58.8,51.6,24.89,South,172,2.0,-999.0,77,-99.99,,,-99.99,dwt +perl,2013-09-03 09:09:00,
2013-09-03 02:14:00,58.8,52.0,24.89,South,172,2.0,-999.0,78,-99.99,,,-99.99,dwt +perl,2013-09-03 09:14:00,
2013-09-03 02:19:00,58.9,51.7,24.89,South,172,7.0,-999.0,77,-99.99,,,-99.99,dwt +perl,2013-09-03 09:19:00,
2013-09-03 02:24:00,59.3,53.5,24.89,SSW,210,6.0,-999.0,81,-99.99,,,-99.99,dwt +perl,2013-09-03 09:24:00,
2013-09-03 02:29:00,59.3,51.7,24.88,SSW,210,6.0,-999.0,76,-99.99,,,-99.99,dwt +perl,2013-09-03 09:29:00,
2013-09-03 02:34:00,59.5,51.9,24.89,SSW,210,4.0,-999.0,76,-99.99,,,-99.99,dwt +perl,2013-09-03 09:34:00,
2013-09-03 02:39:00,59.5,50.5,24.89,SSW,210,1.0,-999.0,72,-99.99,,,-99.99,dwt +perl,2013-09-03 09:39:00,
2013-09-03 02:44:00,59.4,51.5,24.89,SSW,210,3.0,-999.0,75,-99.99,,,-99.99,dwt +perl,2013-09-03 09:44:00,
2013-09-03 02:49:00,59.3,49.9,24.89,SSW,210,1.0,-999.0,71,-99.99,,,-99.99,dwt +perl,2013-09-03 09:49:00,
2013-09-03 02:54:00,59.2,48.6,24.89,SSW,210,3.0,-999.0,68,-99.99,,,-99.99,dwt +perl,2013-09-03 09:54:00,
2013-09-03 02:59:00,59.2,48.6,24.89,SSW,210,5.0,-999.0,68,-99.99,,,-99.99,dwt +perl,2013-09-03 09:59:00,
2013-09-03 03:09:00,59.5,53.0,24.89,SSW,210,4.0,-999.0,79,-99.99,,,-99.99,dwt +perl,2013-09-03 10:09:00,
2013-09-03 03:14:00,59.3,48.3,24.89,SSW,210,1.0,-999.0,67,-99.99,,,-99.99,dwt +perl,2013-09-03 10:14:00,
2013-09-03 03:19:00,59.6,52.7,24.89,SSW,210,0.0,-999.0,78,-99.99,,,-99.99,dwt +perl,2013-09-03 10:19:00,
2013-09-03 03:24:00,59.5,50.8,24.89,SSW,210,3.0,-999.0,73,-99.99,,,-99.99,dwt +perl,2013-09-03 10:24:00,
2013-09-03 03:34:00,59.1,48.5,24.89,SSW,210,0.0,-999.0,68,-99.99,,,-99.99,dwt +perl,2013-09-03 10:34:00,
2013-09-03 03:39:00,59.3,47.9,24.89,SSW,210,0.0,-999.0,66,-99.99,,,-99.99,dwt +perl,2013-09-03 10:39:00,
2013-09-03 03:49:00,59.1,49.3,24.89,SSW,210,0.0,-999.0,70,-99.99,,,-99.99,dwt +perl,2013-09-03 10:49:00,
2013-09-03 03:54:00,58.8,45.8,24.88,SSW,210,4.0,-999.0,62,-99.99,,,-99.99,dwt +perl,2013-09-03 10:54:00,
2013-09-03 03:59:00,58.1,43.8,24.88,SW,214,5.0,-999.0,59,-99.99,,,-99.99,dwt +perl,2013-09-03 10:59:00,
2013-09-03 04:04:00,57.8,43.6,24.89,WNW,284,9.0,-999.0,59,-99.99,,,-99.99,dwt +perl,2013-09-03 11:04:00,
2013-09-03 04:09:00,58.1,43.8,24.89,WNW,289,5.0,-999.0,59,-99.99,,,-99.99,dwt +perl,2013-09-03 11:09:00,
2013-09-03 04:14:00,58.4,44.1,24.89,WNW,301,4.0,-999.0,59,-99.99,,,-99.99,dwt +perl,2013-09-03 11:14:00,
2013-09-03 04:24:00,57.8,41.3,24.89,WNW,287,10.0,-999.0,54,-99.99,,,-99.99,dwt +perl,2013-09-03 11:24:00,
2013-09-03 04:29:00,57.6,41.5,24.89,WNW,284,7.0,-999.0,55,-99.99,,,-99.99,dwt +perl,2013-09-03 11:29:00,
2013-09-03 04:34:00,57.3,41.7,24.89,WNW,287,11.0,-999.0,56,-99.99,,,-99.99,dwt +perl,2013-09-03 11:34:00,
2013-09-03 04:39:00,57.3,42.2,24.89,WNW,285,8.0,-999.0,57,-99.99,,,-99.99,dwt +perl,2013-09-03 11:39:00,
2013-09-03 04:44:00,57.1,41.5,24.89,WNW,297,10.0,-999.0,56,-99.99,,,-99.99,dwt +perl,2013-09-03 11:44:00,
2013-09-03 04:49:00,56.9,42.3,24.89,West,274,7.0,-999.0,58,-99.99,,,-99.99,dwt +perl,2013-09-03 11:49:00,
2013-09-03 04:54:00,56.7,42.1,24.89,West,274,11.0,-999.0,58,-99.99,,,-99.99,dwt +perl,2013-09-03 11:54:00,
2013-09-03 05:09:00,56.5,42.8,24.89,West,270,12.0,-999.0,60,-99.99,,,-99.99,dwt +perl,2013-09-03 12:09:00,
2013-09-03 05:14:00,56.7,43.0,24.89,West,280,13.0,-999.0,60,-99.99,,,-99.99,dwt +perl,2013-09-03 12:14:00,
2013-09-03 05:19:00,56.9,43.2,24.89,West,274,9.0,-999.0,60,-99.99,,,-99.99,dwt +perl,2013-09-03 12:19:00,
2013-09-03 05:29:00,56.8,43.5,24.89,West,273,11.0,-999.0,61,-99.99,,,-99.99,dwt +perl,2013-09-03 12:29:00,
2013-09-03 05:34:00,57.3,43.5,24.89,West,265,9.0,-999.0,60,-99.99,,,-99.99,dwt +perl,2013-09-03 12:34:00,
2013-09-03 05:39:00,57.4,43.6,24.89,West,276,9.0,-999.0,60,-99.99,,,-99.99,dwt +perl,2013-09-03 12:39:00,
2013-09-03 05:44:00,57.4,43.6,24.89,West,275,10.0,-999.0,60,-99.99,,,-99.99,dwt +perl,2013-09-03 12:44:00,
2013-09-03 05:54:00,57.3,43.5,24.89,West,276,8.0,-999.0,60,-99.99,,,-99.99,dwt +perl,2013-09-03 12:54:00,
2013-09-03 05:59:00,57.6,43.8,24.89,West,280,5.0,-999.0,60,-99.99,,,-99.99,dwt +perl,2013-09-03 12:59:00,
2013-09-03 06:04:00,57.9,44.1,24.90,West,280,6.0,-999.0,60,-99.99,,,-99.99,dwt +perl,2013-09-03 13:04:00,
2013-09-03 06:09:00,58.1,43.8,24.90,West,279,3.0,-999.0,59,-99.99,,,-99.99,dwt +perl,2013-09-03 13:09:00,
2013-09-03 06:14:00,58.3,44.0,24.90,West,280,2.0,-999.0,59,-99.99,,,-99.99,dwt +perl,2013-09-03 13:14:00,
2013-09-03 06:19:00,58.6,44.3,24.90,West,279,2.0,-999.0,59,-99.99,,,-99.99,dwt +perl,2013-09-03 13:19:00,
2013-09-03 06:24:00,58.7,44.0,24.90,West,279,1.0,-999.0,58,-99.99,,,-99.99,dwt +perl,2013-09-03 13:24:00,
2013-09-03 06:34:00,58.8,44.0,24.90,West,279,0.0,-999.0,58,-99.99,,,-99.99,dwt +perl,2013-09-03 13:34:00,
2013-09-03 06:39:00,58.9,43.7,24.90,West,280,3.0,-999.0,57,-99.99,,,-99.99,dwt +perl,2013-09-03 13:39:00,
2013-09-03 06:44:00,58.7,44.0,24.90,West,279,1.0,-999.0,58,-99.99,,,-99.99,dwt +perl,2013-09-03 13:44:00,
2013-09-03 06:49:00,58.6,43.9,24.91,West,279,1.0,-999.0,58,-99.99,,,-99.99,dwt +perl,2013-09-03 13:49:00,
2013-09-03 06:59:00,58.8,44.9,24.91,West,279,0.0,-999.0,60,-99.99,,,-99.99,dwt +perl,2013-09-03 13:59:00,
2013-09-03 07:04:00,59.2,45.3,24.91,West,279,1.0,-999.0,60,-99.99,,,-99.99,dwt +perl,2013-09-03 14:04:00,
2013-09-03 07:19:00,60.1,44.8,24.91,West,279,2.0,-999.0,57,-99.99,,,-99.99,dwt +perl,2013-09-03 14:19:00,
2013-09-03 07:24:00,60.1,44.8,24.91,West,279,2.0,-999.0,57,-99.99,,,-99.99,dwt +perl,2013-09-03 14:24:00,
2013-09-03 07:29:00,61.6,47.6,24.91,West,279,1.0,-999.0,60,-99.99,,,-99.99,dwt +perl,2013-09-03 14:29:00,
2013-09-03 07:34:00,61.8,47.8,24.91,West,280,2.0,-999.0,60,-99.99,,,-99.99,dwt +perl,2013-09-03 14:34:00,
2013-09-03 07:49:00,61.6,47.1,24.92,West,279,3.0,-999.0,59,-99.99,,,-99.99,dwt +perl,2013-09-03 14:49:00,
2013-09-03 07:54:00,61.3,46.4,24.92,West,279,2.0,-999.0,58,-99.99,,,-99.99,dwt +perl,2013-09-03 14:54:00,
2013-09-03 07:59:00,61.1,46.7,24.92,West,279,3.0,-999.0,59,-99.99,,,-99.99,dwt +perl,2013-09-03 14:59:00,
2013-09-03 08:04:00,61.3,47.3,24.92,West,279,2.0,-999.0,60,-99.99,,,-99.99,dwt +perl,2013-09-03 15:04:00,
2013-09-03 08:09:00,61.6,47.1,24.92,West,279,2.0,-999.0,59,-99.99,,,-99.99,dwt +perl,2013-09-03 15:09:00,
2013-09-03 08:14:00,61.9,47.0,24.92,West,279,0.0,-999.0,58,-99.99,,,-99.99,dwt +perl,2013-09-03 15:14:00,
2013-09-03 08:19:00,62.3,47.8,24.92,West,279,1.0,-999.0,59,-99.99,,,-99.99,dwt +perl,2013-09-03 15:19:00,
2013-09-03 08:24:00,62.8,48.7,24.92,West,279,2.0,-999.0,60,-99.99,,,-99.99,dwt +perl,2013-09-03 15:24:00,
2013-09-03 08:29:00,63.4,49.3,24.92,West,279,2.0,-999.0,60,-99.99,,,-99.99,dwt +perl,2013-09-03 15:29:00,
2013-09-03 08:34:00,63.8,48.7,24.92,West,279,2.0,-999.0,58,-99.99,,,-99.99,dwt +perl,2013-09-03 15:34:00,
2013-09-03 08:39:00,63.8,48.3,24.92,West,279,1.0,-999.0,57,-99.99,,,-99.99,dwt +perl,2013-09-03 15:39:00,
2013-09-03 08:44:00,63.6,47.6,24.92,West,279,0.0,-999.0,56,-99.99,,,-99.99,dwt +perl,2013-09-03 15:44:00,
2013-09-03 08:49:00,63.3,47.8,24.93,West,279,0.0,-999.0,57,-99.99,,,-99.99,dwt +perl,2013-09-03 15:49:00,
2013-09-03 08:54:00,63.1,47.1,24.93,West,280,1.0,-999.0,56,-99.99,,,-99.99,dwt +perl,2013-09-03 15:54:00,
2013-09-03 09:09:00,65.0,45.4,24.93,West,279,0.0,-999.0,49,-99.99,,,-99.99,dwt +perl,2013-09-03 16:09:00,
2013-09-03 09:14:00,65.4,41.1,24.93,West,279,0.0,-999.0,41,-99.99,,,-99.99,dwt +perl,2013-09-03 16:14:00,
2013-09-03 09:24:00,65.0,45.4,24.93,West,279,0.0,-999.0,49,-99.99,,,-99.99,dwt +perl,2013-09-03 16:24:00,
2013-09-03 09:29:00,65.2,46.6,24.93,West,279,1.0,-999.0,51,-99.99,,,-99.99,dwt +perl,2013-09-03 16:29:00,
2013-09-03 09:34:00,65.4,47.3,24.93,West,279,2.0,-999.0,52,-99.99,,,-99.99,dwt +perl,2013-09-03 16:34:00,
2013-09-03 09:39:00,65.3,47.7,24.94,West,279,2.0,-999.0,53,-99.99,,,-99.99,dwt +perl,2013-09-03 16:39:00,
2013-09-03 09:44:00,65.3,47.2,24.94,West,279,1.0,-999.0,52,-99.99,,,-99.99,dwt +perl,2013-09-03 16:44:00,
2013-09-03 09:49:00,65.8,47.2,24.94,West,279,0.0,-999.0,51,-99.99,,,-99.99,dwt +perl,2013-09-03 16:49:00,
2013-09-03 09:54:00,66.0,47.3,24.94,West,279,2.0,-999.0,51,-99.99,,,-99.99,dwt +perl,2013-09-03 16:54:00,
2013-09-03 10:04:00,66.2,44.8,24.94,West,279,3.0,-999.0,46,-99.99,,,-99.99,dwt +perl,2013-09-03 17:04:00,
2013-09-03 10:09:00,66.4,45.5,24.94,West,279,2.0,-999.0,47,-99.99,,,-99.99,dwt +perl,2013-09-03 17:09:00,
2013-09-03 10:14:00,65.9,44.5,24.94,West,279,1.0,-999.0,46,-99.99,,,-99.99,dwt +perl,2013-09-03 17:14:00,
2013-09-03 10:19:00,65.9,48.3,24.94,West,279,0.0,-999.0,53,-99.99,,,-99.99,dwt +perl,2013-09-03 17:19:00,
2013-09-03 10:29:00,66.7,48.0,24.94,West,279,0.0,-999.0,51,-99.99,,,-99.99,dwt +perl,2013-09-03 17:29:00,
2013-09-03 10:34:00,67.4,47.0,24.94,West,279,1.0,-999.0,48,-99.99,,,-99.99,dwt +perl,2013-09-03 17:34:00,
2013-09-03 10:39:00,68.1,47.1,24.94,West,279,1.0,-999.0,47,-99.99,,,-99.99,dwt +perl,2013-09-03 17:39:00,
2013-09-03 10:44:00,68.4,47.4,24.94,West,279,0.0,-999.0,47,-99.99,,,-99.99,dwt +perl,2013-09-03 17:44:00,
2013-09-03 10:49:00,69.0,49.0,24.94,West,280,0.0,-999.0,49,-99.99,,,-99.99,dwt +perl,2013-09-03 17:49:00,
2013-09-03 10:54:00,69.0,46.2,24.94,West,280,1.0,-999.0,44,-99.99,,,-99.99,dwt +perl,2013-09-03 17:54:00,
2013-09-03 11:04:00,68.9,46.1,24.94,West,277,3.0,-999.0,44,-99.99,,,-99.99,dwt +perl,2013-09-03 18:04:00,
2013-09-03 11:09:00,69.0,45.6,24.94,South,178,3.0,-999.0,43,-99.99,,,-99.99,dwt +perl,2013-09-03 18:09:00,
2013-09-03 11:14:00,69.3,47.6,24.94,South,178,1.0,-999.0,46,-99.99,,,-99.99,dwt +perl,2013-09-03 18:14:00,
2013-09-03 11:19:00,69.7,48.5,24.94,South,176,2.0,-999.0,47,-99.99,,,-99.99,dwt +perl,2013-09-03 18:19:00,
2013-09-03 11:24:00,69.9,45.1,24.94,South,175,0.0,-999.0,41,-99.99,,,-99.99,dwt +perl,2013-09-03 18:24:00,
2013-09-03 11:29:00,69.9,48.2,24.94,South,182,1.0,-999.0,46,-99.99,,,-99.99,dwt +perl,2013-09-03 18:29:00,
2013-09-03 11:34:00,70.1,43.3,24.94,South,185,3.0,-999.0,38,-99.99,,,-99.99,dwt +perl,2013-09-03 18:34:00,
2013-09-03 11:39:00,69.9,46.4,24.94,WSW,241,7.0,-999.0,43,-99.99,,,-99.99,dwt +perl,2013-09-03 18:39:00,
2013-09-03 11:44:00,69.6,47.9,24.94,WSW,241,0.0,-999.0,46,-99.99,,,-99.99,dwt +perl,2013-09-03 18:44:00,
2013-09-03 11:49:00,70.1,45.9,24.94,SW,225,3.0,-999.0,42,-99.99,,,-99.99,dwt +perl,2013-09-03 18:49:00,
2013-09-03 11:54:00,69.8,46.9,24.94,SW,234,1.0,-999.0,44,-99.99,,,-99.99,dwt +perl,2013-09-03 18:54:00,
2013-09-03 11:59:00,70.0,48.2,24.94,East,81,1.0,-999.0,46,-99.99,,,-99.99,dwt +perl,2013-09-03 18:59:00,
2013-09-03 12:04:00,71.1,48.7,24.94,NE,49,2.0,-999.0,45,-99.99,,,-99.99,dwt +perl,2013-09-03 19:04:00,
2013-09-03 12:19:00,71.4,48.9,24.94,ENE,71,0.0,-999.0,45,-99.99,,,-99.99,dwt +perl,2013-09-03 19:19:00,
2013-09-03 12:24:00,71.4,46.5,24.94,SW,214,2.0,-999.0,41,-99.99,,,-99.99,dwt +perl,2013-09-03 19:24:00,
2013-09-03 12:34:00,71.2,46.3,24.94,South,191,3.0,-999.0,41,-99.99,,,-99.99,dwt +perl,2013-09-03 19:34:00,
2013-09-03 12:39:00,71.3,47.6,24.94,SSW,193,0.0,-999.0,43,-99.99,,,-99.99,dwt +perl,2013-09-03 19:39:00,
2013-09-03 12:44:00,71.8,46.8,24.94,SSW,199,1.0,-999.0,41,-99.99,,,-99.99,dwt +perl,2013-09-03 19:44:00,
2013-09-03 12:49:00,71.7,46.7,24.93,SW,229,0.0,-999.0,41,-99.99,,,-99.99,dwt +perl,2013-09-03 19:49:00,
2013-09-03 12:54:00,71.8,47.5,24.93,SW,229,0.0,-999.0,42,-99.99,,,-99.99,dwt +perl,2013-09-03 19:54:00,
2013-09-03 12:59:00,72.2,47.8,24.93,SSW,211,1.0,-999.0,42,-99.99,,,-99.99,dwt +perl,2013-09-03 19:59:00,
2013-09-03 13:04:00,72.8,47.1,24.93,SSW,208,3.0,-999.0,40,-99.99,,,-99.99,dwt +perl,2013-09-03 20:04:00,
2013-09-03 13:09:00,72.2,46.5,24.93,SSW,208,2.0,-999.0,40,-99.99,,,-99.99,dwt +perl,2013-09-03 20:09:00,
2013-09-03 13:14:00,71.8,46.8,24.93,SW,215,1.0,-999.0,41,-99.99,,,-99.99,dwt +perl,2013-09-03 20:14:00,
2013-09-03 13:19:00,71.3,46.4,24.93,SW,215,2.0,-999.0,41,-99.99,,,-99.99,dwt +perl,2013-09-03 20:19:00,
2013-09-03 13:24:00,71.1,47.5,24.94,West,276,0.0,-999.0,43,-99.99,,,-99.99,dwt +perl,2013-09-03 20:24:00,
2013-09-03 13:29:00,71.5,46.5,24.93,West,279,0.0,-999.0,41,-99.99,,,-99.99,dwt +perl,2013-09-03 20:29:00,
2013-09-03 13:34:00,72.0,47.0,24.93,West,279,0.0,-999.0,41,-99.99,,,-99.99,dwt +perl,2013-09-03 20:34:00,
2013-09-03 13:39:00,72.2,46.5,24.93,West,279,0.0,-999.0,40,-99.99,,,-99.99,dwt +perl,2013-09-03 20:39:00,
2013-09-03 13:44:00,72.1,46.4,24.93,West,278,0.0,-999.0,40,-99.99,,,-99.99,dwt +perl,2013-09-03 20:44:00,
2013-09-03 13:54:00,71.1,45.5,24.93,SW,234,6.0,-999.0,40,-99.99,,,-99.99,dwt +perl,2013-09-03 20:54:00,
2013-09-03 13:59:00,70.8,45.9,24.94,SW,230,7.0,-999.0,41,-99.99,,,-99.99,dwt +perl,2013-09-03 20:59:00,
2013-09-03 14:04:00,70.1,45.9,24.93,SW,227,4.0,-999.0,42,-99.99,,,-99.99,dwt +perl,2013-09-03 21:04:00,
2013-09-03 14:09:00,69.8,46.3,24.93,SW,224,3.0,-999.0,43,-99.99,,,-99.99,dwt +perl,2013-09-03 21:09:00,
2013-09-03 14:14:00,70.5,46.3,24.93,SW,222,3.0,-999.0,42,-99.99,,,-99.99,dwt +perl,2013-09-03 21:14:00,
2013-09-03 14:19:00,70.0,46.5,24.93,SW,220,2.0,-999.0,43,-99.99,,,-99.99,dwt +perl,2013-09-03 21:19:00,
2013-09-03 14:34:00,69.9,46.4,24.93,SW,224,0.0,-999.0,43,-99.99,,,-99.99,dwt +perl,2013-09-03 21:34:00,
2013-09-03 14:39:00,70.2,46.6,24.93,SW,224,4.0,-999.0,43,-99.99,,,-99.99,dwt +perl,2013-09-03 21:39:00,
2013-09-03 14:44:00,70.0,45.8,24.93,SW,216,4.0,-999.0,42,-99.99,,,-99.99,dwt +perl,2013-09-03 21:44:00,
2013-09-03 14:49:00,69.9,47.0,24.93,WSW,238,3.0,-999.0,44,-99.99,,,-99.99,dwt +perl,2013-09-03 21:49:00,
2013-09-03 14:54:00,69.8,46.9,24.93,WSW,243,2.0,-999.0,44,-99.99,,,-99.99,dwt +perl,2013-09-03 21:54:00,
2013-09-03 14:59:00,69.6,47.3,24.92,WSW,241,1.0,-999.0,45,-99.99,,,-99.99,dwt +perl,2013-09-03 21:59:00,
2013-09-03 15:04:00,70.8,47.8,24.93,SW,234,1.0,-999.0,44,-99.99,,,-99.99,dwt +perl,2013-09-03 22:04:00,
2013-09-03 15:14:00,71.9,46.9,24.92,SW,233,3.0,-999.0,41,-99.99,,,-99.99,dwt +perl,2013-09-03 22:14:00,
2013-09-03 15:19:00,71.6,47.9,24.92,SW,234,1.0,-999.0,43,-99.99,,,-99.99,dwt +perl,2013-09-03 22:19:00,
2013-09-03 15:29:00,70.6,46.4,24.92,SW,224,8.0,-999.0,42,-99.99,,,-99.99,dwt +perl,2013-09-03 22:29:00,
2013-09-03 15:34:00,69.5,47.2,24.92,SW,221,6.0,-999.0,45,-99.99,,,-99.99,dwt +perl,2013-09-03 22:34:00,
2013-09-03 15:39:00,70.0,46.5,24.92,SSW,210,5.0,-999.0,43,-99.99,,,-99.99,dwt +perl,2013-09-03 22:39:00,
2013-09-03 15:44:00,69.7,46.8,24.92,SW,220,3.0,-999.0,44,-99.99,,,-99.99,dwt +perl,2013-09-03 22:44:00,
2013-09-03 15:49:00,69.9,46.4,24.92,SSW,210,4.0,-999.0,43,-99.99,,,-99.99,dwt +perl,2013-09-03 22:49:00,
2013-09-03 15:54:00,68.9,46.1,24.92,SW,224,8.0,-999.0,44,-99.99,,,-99.99,dwt +perl,2013-09-03 22:54:00,
2013-09-03 15:59:00,68.4,46.2,24.92,SW,224,7.0,-999.0,45,-99.99,,,-99.99,dwt +perl,2013-09-03 22:59:00,
2013-09-03 16:04:00,68.3,46.1,24.92,SW,224,9.0,-999.0,45,-99.99,,,-99.99,dwt +perl,2013-09-03 23:04:00,
2013-09-03 16:09:00,69.0,46.8,24.92,SW,233,7.0,-999.0,45,-99.99,,,-99.99,dwt +perl,2013-09-03 23:09:00,
2013-09-03 16:14:00,69.5,46.6,24.91,SW,228,6.0,-999.0,44,-99.99,,,-99.99,dwt +perl,2013-09-03 23:14:00,
2013-09-03 16:19:00,69.4,45.9,24.92,SW,228,1.0,-999.0,43,-99.99,,,-99.99,dwt +perl,2013-09-03 23:19:00,
2013-09-03 16:24:00,70.0,46.5,24.92,SW,225,2.0,-999.0,43,-99.99,,,-99.99,dwt +perl,2013-09-03 23:24:00,
2013-09-03 16:29:00,71.2,46.9,24.92,SW,224,0.0,-999.0,42,-99.99,,,-99.99,dwt +perl,2013-09-03 23:29:00,
2013-09-03 16:34:00,71.8,46.8,24.91,SW,224,4.0,-999.0,41,-99.99,,,-99.99,dwt +perl,2013-09-03 23:34:00,
2013-09-03 16:39:00,71.4,46.5,24.92,SW,223,5.0,-999.0,41,-99.99,,,-99.99,dwt +perl,2013-09-03 23:39:00,
2013-09-03 16:49:00,70.8,45.9,24.91,WSW,237,1.0,-999.0,41,-99.99,,,-99.99,dwt +perl,2013-09-03 23:49:00,
2013-09-03 16:54:00,70.6,45.7,24.91,WSW,237,5.0,-999.0,41,-99.99,,,-99.99,dwt +perl,2013-09-03 23:54:00,
2013-09-03 16:59:00,70.5,45.7,24.91,SW,236,1.0,-999.0,41,-99.99,,,-99.99,dwt +perl,2013-09-03 23:59:00,
2013-09-03 17:04:00,70.7,45.8,24.91,SW,233,3.0,-999.0,41,-99.99,,,-99.99,dwt +perl,2013-09-04 00:04:00,
2013-09-03 17:09:00,70.4,46.2,24.91,SW,233,0.0,-999.0,42,-99.99,,,-99.99,dwt +perl,2013-09-04 00:09:00,
2013-09-03 17:14:00,70.6,45.7,24.91,SW,233,4.0,-999.0,41,-99.99,,,-99.99,dwt +perl,2013-09-04 00:14:00,
2013-09-03 17:29:00,71.4,45.8,24.91,SW,233,0.0,-999.0,40,-99.99,,,-99.99,dwt +perl,2013-09-04 00:29:00,
2013-09-03 17:34:00,72.1,46.4,24.91,SW,233,0.0,-999.0,40,-99.99,,,-99.99,dwt +perl,2013-09-04 00:34:00,
2013-09-03 17:39:00,72.5,46.8,24.91,SW,233,3.0,-999.0,40,-99.99,,,-99.99,dwt +perl,2013-09-04 00:39:00,
2013-09-03 17:44:00,72.1,46.4,24.91,SW,233,0.0,-999.0,40,-99.99,,,-99.99,dwt +perl,2013-09-04 00:44:00,
2013-09-03 17:49:00,71.8,46.2,24.91,SW,233,2.0,-999.0,40,-99.99,,,-99.99,dwt +perl,2013-09-04 00:49:00,
2013-09-03 17:54:00,70.9,46.0,24.91,SW,233,4.0,-999.0,41,-99.99,,,-99.99,dwt +perl,2013-09-04 00:54:00,
2013-09-03 17:59:00,70.6,46.4,24.91,SW,233,0.0,-999.0,42,-99.99,,,-99.99,dwt +perl,2013-09-04 00:59:00,
2013-09-03 18:04:00,70.4,46.2,24.91,SW,233,1.0,-999.0,42,-99.99,,,-99.99,dwt +perl,2013-09-04 01:04:00,
2013-09-03 18:14:00,69.8,46.3,24.91,SW,233,0.0,-999.0,43,-99.99,,,-99.99,dwt +perl,2013-09-04 01:14:00,
2013-09-03 18:19:00,69.7,46.2,24.91,SW,233,0.0,-999.0,43,-99.99,,,-99.99,dwt +perl,2013-09-04 01:19:00,
2013-09-03 18:24:00,70.1,46.5,24.90,SW,233,0.0,-999.0,43,-99.99,,,-99.99,dwt +perl,2013-09-04 01:24:00,
2013-09-03 18:29:00,70.5,46.3,24.90,SW,233,0.0,-999.0,42,-99.99,,,-99.99,dwt +perl,2013-09-04 01:29:00,
2013-09-03 18:34:00,70.8,46.6,24.90,SW,233,0.0,-999.0,42,-99.99,,,-99.99,dwt +perl,2013-09-04 01:34:00,
2013-09-03 18:39:00,70.0,46.5,24.90,SW,233,0.0,-999.0,43,-99.99,,,-99.99,dwt +perl,2013-09-04 01:39:00,
2013-09-03 18:44:00,69.0,46.2,24.90,SW,233,1.0,-999.0,44,-99.99,,,-99.99,dwt +perl,2013-09-04 01:44:00,
2013-09-03 18:54:00,67.9,46.3,24.90,SW,233,0.0,-999.0,46,-99.99,,,-99.99,dwt +perl,2013-09-04 01:54:00,
2013-09-03 18:59:00,67.6,46.1,24.90,SW,233,0.0,-999.0,46,-99.99,,,-99.99,dwt +perl,2013-09-04 01:59:00,
2013-09-03 19:09:00,67.1,46.2,24.90,SW,233,0.0,-999.0,47,-99.99,,,-99.99,dwt +perl,2013-09-04 02:09:00,
2013-09-03 19:14:00,67.0,46.1,24.90,SW,233,0.0,-999.0,47,-99.99,,,-99.99,dwt +perl,2013-09-04 02:14:00,
2013-09-03 19:24:00,67.1,43.8,24.90,SW,233,0.0,-999.0,43,-99.99,,,-99.99,dwt +perl,2013-09-04 02:24:00,
2013-09-03 19:29:00,66.9,42.4,24.90,SW,233,0.0,-999.0,41,-99.99,,,-99.99,dwt +perl,2013-09-04 02:29:00,
2013-09-03 19:34:00,66.5,40.8,24.90,SW,233,2.0,-999.0,39,-99.99,,,-99.99,dwt +perl,2013-09-04 02:34:00,
2013-09-03 19:44:00,65.6,39.3,24.90,SW,233,1.0,-999.0,38,-99.99,,,-99.99,dwt +perl,2013-09-04 02:44:00,
2013-09-03 19:49:00,65.4,39.8,24.90,SW,233,0.0,-999.0,39,-99.99,,,-99.99,dwt +perl,2013-09-04 02:49:00,
2013-09-03 19:54:00,65.2,40.3,24.90,SW,233,2.0,-999.0,40,-99.99,,,-99.99,dwt +perl,2013-09-04 02:54:00,
2013-09-03 20:04:00,64.8,41.2,24.91,SW,233,2.0,-999.0,42,-99.99,,,-99.99,dwt +perl,2013-09-04 03:04:00,
2013-09-03 20:09:00,64.6,42.2,24.91,SW,233,2.0,-999.0,44,-99.99,,,-99.99,dwt +perl,2013-09-04 03:09:00,
2013-09-03 20:14:00,64.5,42.1,24.91,SW,233,2.0,-999.0,44,-99.99,,,-99.99,dwt +perl,2013-09-04 03:14:00,
2013-09-03 20:19:00,64.0,43.9,24.91,SW,233,2.0,-999.0,48,-99.99,,,-99.99,dwt +perl,2013-09-04 03:19:00,
2013-09-03 20:24:00,64.3,42.5,24.91,SW,233,0.0,-999.0,45,-99.99,,,-99.99,dwt +perl,2013-09-04 03:24:00,
2013-09-03 20:34:00,63.6,44.1,24.91,SW,233,1.0,-999.0,49,-99.99,,,-99.99,dwt +perl,2013-09-04 03:34:00,
2013-09-03 20:39:00,63.4,45.5,24.91,SW,233,1.0,-999.0,52,-99.99,,,-99.99,dwt +perl,2013-09-04 03:39:00,
2013-09-03 20:44:00,63.2,45.3,24.91,SW,233,0.0,-999.0,52,-99.99,,,-99.99,dwt +perl,2013-09-04 03:44:00,
2013-09-03 20:49:00,63.1,44.2,24.91,SW,233,0.0,-999.0,50,-99.99,,,-99.99,dwt +perl,2013-09-04 03:49:00,
2013-09-03 20:54:00,63.2,43.7,24.91,SW,233,2.0,-999.0,49,-99.99,,,-99.99,dwt +perl,2013-09-04 03:54:00,
2013-09-03 20:59:00,63.6,41.3,24.91,SW,231,3.0,-999.0,44,-99.99,,,-99.99,dwt +perl,2013-09-04 03:59:00,
2013-09-03 21:04:00,64.3,38.1,24.92,SSW,193,3.0,-999.0,38,-99.99,,,-99.99,dwt +perl,2013-09-04 04:04:00,
2013-09-03 21:09:00,64.6,38.4,24.92,South,176,5.0,-999.0,38,-99.99,,,-99.99,dwt +perl,2013-09-04 04:09:00,
2013-09-03 21:14:00,64.8,41.8,24.92,SSE,166,3.0,-999.0,43,-99.99,,,-99.99,dwt +perl,2013-09-04 04:14:00,
2013-09-03 21:19:00,64.8,44.1,24.92,SSE,148,3.0,-999.0,47,-99.99,,,-99.99,dwt +perl,2013-09-04 04:19:00,
2013-09-03 21:24:00,64.7,44.5,24.92,SSE,147,3.0,-999.0,48,-99.99,,,-99.99,dwt +perl,2013-09-04 04:24:00,
2013-09-03 21:29:00,64.6,38.4,24.92,SE,146,4.0,-999.0,38,-99.99,,,-99.99,dwt +perl,2013-09-04 04:29:00,
2013-09-03 21:34:00,64.8,40.5,24.92,SE,146,3.0,-999.0,41,-99.99,,,-99.99,dwt +perl,2013-09-04 04:34:00,
2013-09-03 21:39:00,64.9,45.3,24.92,SE,145,2.0,-999.0,49,-99.99,,,-99.99,dwt +perl,2013-09-04 04:39:00,
2013-09-03 21:44:00,64.7,45.6,24.92,SE,145,3.0,-999.0,50,-99.99,,,-99.99,dwt +perl,2013-09-04 04:44:00,
2013-09-03 21:49:00,64.6,47.1,24.92,SE,145,4.0,-999.0,53,-99.99,,,-99.99,dwt +perl,2013-09-04 04:49:00,
2013-09-03 21:54:00,64.5,44.9,24.92,SE,144,3.0,-999.0,49,-99.99,,,-99.99,dwt +perl,2013-09-04 04:54:00,
2013-09-03 21:59:00,64.5,43.2,24.92,SE,146,4.0,-999.0,46,-99.99,,,-99.99,dwt +perl,2013-09-04 04:59:00,
2013-09-03 22:04:00,64.6,42.2,24.92,SSE,149,2.0,-999.0,44,-99.99,,,-99.99,dwt +perl,2013-09-04 05:04:00,
2013-09-03 22:09:00,64.8,41.8,24.92,SSE,151,1.0,-999.0,43,-99.99,,,-99.99,dwt +perl,2013-09-04 05:09:00,
2013-09-03 22:14:00,64.9,40.6,24.92,SSE,160,4.0,-999.0,41,-99.99,,,-99.99,dwt +perl,2013-09-04 05:14:00,
2013-09-03 22:19:00,64.9,40.0,24.92,SSE,151,5.0,-999.0,40,-99.99,,,-99.99,dwt +perl,2013-09-04 05:19:00,
2013-09-03 22:24:00,65.1,40.8,24.93,SSE,158,4.0,-999.0,41,-99.99,,,-99.99,dwt +perl,2013-09-04 05:24:00,
2013-09-03 22:29:00,65.2,41.5,24.93,SSE,163,5.0,-999.0,42,-99.99,,,-99.99,dwt +perl,2013-09-04 05:29:00,
2013-09-03 22:34:00,65.3,42.8,24.92,SSE,163,5.0,-999.0,44,-99.99,,,-99.99,dwt +perl,2013-09-04 05:34:00,
2013-09-03 22:39:00,65.2,42.7,24.92,SSE,160,4.0,-999.0,44,-99.99,,,-99.99,dwt +perl,2013-09-04 05:39:00,
2013-09-03 22:44:00,65.1,42.0,24.93,SSE,158,3.0,-999.0,43,-99.99,,,-99.99,dwt +perl,2013-09-04 05:44:00,
2013-09-03 22:49:00,65.0,42.5,24.93,SSE,162,2.0,-999.0,44,-99.99,,,-99.99,dwt +perl,2013-09-04 05:49:00,
2013-09-03 22:54:00,64.9,43.6,24.93,SSE,150,2.0,-999.0,46,-99.99,,,-99.99,dwt +perl,2013-09-04 05:54:00,
2013-09-03 22:59:00,64.9,45.8,24.93,SSE,156,3.0,-999.0,50,-99.99,,,-99.99,dwt +perl,2013-09-04 05:59:00,
2013-09-03 23:04:00,64.8,45.7,24.93,SSE,161,5.0,-999.0,50,-99.99,,,-99.99,dwt +perl,2013-09-04 06:04:00,
2013-09-03 23:09:00,64.7,45.6,24.93,SSE,168,3.0,-999.0,50,-99.99,,,-99.99,dwt +perl,2013-09-04 06:09:00,
2013-09-03 23:14:00,64.8,47.8,24.92,South,172,6.0,-999.0,54,-99.99,,,-99.99,dwt +perl,2013-09-04 06:14:00,
2013-09-03 23:19:00,65.0,48.4,24.92,South,171,6.0,-999.0,55,-99.99,,,-99.99,dwt +perl,2013-09-04 06:19:00,
2013-09-03 23:24:00,65.0,47.9,24.92,South,171,6.0,-999.0,54,-99.99,,,-99.99,dwt +perl,2013-09-04 06:24:00,
2013-09-03 23:29:00,65.0,47.9,24.92,South,183,3.0,-999.0,54,-99.99,,,-99.99,dwt +perl,2013-09-04 06:29:00,
2013-09-03 23:34:00,64.8,46.8,24.92,South,184,3.0,-999.0,52,-99.99,,,-99.99,dwt +perl,2013-09-04 06:34:00,
2013-09-03 23:39:00,64.6,47.1,24.92,SSW,196,7.0,-999.0,53,-99.99,,,-99.99,dwt +perl,2013-09-04 06:39:00,
2013-09-03 23:44:00,64.4,46.4,24.92,SSW,201,7.0,-999.0,52,-99.99,,,-99.99,dwt +perl,2013-09-04 06:44:00,
2013-09-03 23:49:00,64.3,45.8,24.92,SSW,197,7.0,-999.0,51,-99.99,,,-99.99,dwt +perl,2013-09-04 06:49:00,
2013-09-03 23:54:00,64.2,45.2,24.92,SSW,200,7.0,-999.0,50,-99.99,,,-99.99,dwt +perl,2013-09-04 06:54:00,
2013-09-03 23:59:00,64.1,44.5,24.92,SSW,199,4.0,-999.0,49,-99.99,,,-99.99,dwt +perl,2013-09-04 06:59:00,